KB3CNS Weather Reports


time (UTC)temp
C
wind
direction
speed
KPH
gust
KPH
rain 1hr
cm
rain 24hr
cm
rain mn
cm
humidity
%
barometer
mb
20260509174028 11 221 8.0 19.3 0.00 0.64 0.48 86 1009.2
20260509173504 11 217 9.7 25.7 0.00 0.64 0.48 86 1009.3
20260509173020 11 187 8.0 25.7 0.03 0.64 0.48 87 1009.1
20260509172504 11 208 8.0 22.5 0.03 0.64 0.48 88 1009.1
20260509172008 11 179 6.4 22.5 0.03 0.64 0.48 88 1009.0
20260509171520 10 266 6.4 19.3 0.03 0.64 0.48 89 1009.0
20260509171005 10 217 6.4 20.9 0.05 0.64 0.48 89 1009.0
20260509170505 10 176 6.4 20.9 0.05 0.64 0.48 89 1009.0
20260509170024 10 203 8.0 22.5 0.08 0.64 0.48 89 1009.0
20260509165504 10 226 8.0 22.5 0.08 0.64 0.48 90 1009.0
20260509165006 10 209 6.4 20.9 0.08 0.64 0.48 90 1009.0
20260509164510 10 168 8.0 22.5 0.08 0.64 0.48 90 1009.0
20260509164005 10 201 9.7 22.5 0.08 0.64 0.48 90 1009.0
20260509163502 10 193 6.4 17.7 0.08 0.64 0.48 90 1009.0
20260509163008 10 214 6.4 20.9 0.05 0.61 0.46 90 1008.9
20260509162504 10 231 11.3 24.1 0.05 0.61 0.46 90 1008.9
20260509162006 10 198 8.0 30.6 0.05 0.61 0.46 90 1008.9
20260509161516 10 239 6.4 30.6 0.05 0.61 0.46 90 1008.9
20260509161007 10 205 8.0 19.3 0.03 0.58 0.43 90 1008.9
20260509160511 10 213 9.7 29.0 0.03 0.58 0.43 90 1008.8
20260509160021 10 230 9.7 29.0 0.00 0.56 0.41 90 1008.7
20260509155506 10 239 14.5 27.4 0.03 0.56 0.41 90 1008.7
20260509155009 10 224 11.3 25.7 0.03 0.56 0.41 90 1008.7
20260509154521 9 191 4.8 25.7 0.03 0.56 0.41 90 1008.9
20260509154009 9 213 11.3 22.5 0.03 0.56 0.41 90 1008.9
20260509153504 9 173 6.4 22.5 0.03 0.56 0.41 90 1008.9
20260509153008 9 224 6.4 22.5 0.03 0.56 0.41 90 1008.9
20260509152504 9 239 11.3 22.5 0.03 0.56 0.41 90 1008.9
20260509152006 9 214 9.7 22.5 0.03 0.56 0.41 90 1008.9
20260509151512 9 223 9.7 22.5 0.03 0.56 0.41 90 1008.8
20260509151006 9 205 6.4 25.7 0.03 0.56 0.41 90 1008.9
20260509150506 9 220 9.7 25.7 0.05 0.56 0.41 90 1008.8
20260509150040 9 165 6.4 30.6 0.08 0.56 0.41 90 1008.9
20260509145510 9 230 9.7 30.6 0.05 0.53 0.38 90 1009.0
20260509145007 9 212 8.0 22.5 0.08 0.53 0.38 90 1008.9
20260509144529 9 238 11.3 22.5 0.10 0.53 0.38 90 1008.9
20260509144010 9 198 9.7 22.5 0.10 0.53 0.38 90 1008.9
20260509143507 9 176 9.7 20.9 0.10 0.53 0.38 90 1009.0
20260509143026 9 215 6.4 22.5 0.10 0.53 0.38 90 1008.9
20260509142509 9 165 6.4 22.5 0.10 0.53 0.38 90 1009.1
20260509142008 9 150 8.0 19.3 0.10 0.53 0.38 90 1009.1
20260509141510 9 221 8.0 16.1 0.13 0.53 0.38 90 1009.1
20260509141007 9 193 6.4 16.1 0.13 0.53 0.38 90 1009.2
20260509140546 9 212 6.4 14.5 0.10 0.51 0.36 90 1009.1
20260509140010 9 163 6.4 17.7 0.08 0.48 0.33 90 1009.3
20260509135506 9 151 8.0 17.7 0.10 0.48 0.33 90 1009.2
20260509135007 9 177 6.4 14.5 0.08 0.46 0.30 90 1009.2
20260509134520 9 196 4.8 19.3 0.08 0.43 0.28 90 1009.2
20260509134009 9 275 8.0 20.9 0.08 0.43 0.28 90 1009.2
20260509133506 9 147 8.0 20.9 0.10 0.43 0.28 90 1009.1
20260509133024 9 190 4.8 17.7 0.10 0.43 0.28 90 1009.1
20260509132510 9 200 6.4 17.7 0.13 0.43 0.28 90 1009.3
20260509132011 9 146 8.0 17.7 0.13 0.43 0.28 90 1009.3
20260509131525 8 216 6.4 11.3 0.13 0.41 0.25 90 1009.3
20260509131012 8 201 8.0 19.3 0.13 0.41 0.25 90 1009.2
20260509130509 8 189 6.4 19.3 0.13 0.41 0.25 89 1009.3
20260509130011 8 229 6.4 19.3 0.13 0.41 0.25 89 1009.2
20260509125504 8 172 8.0 20.9 0.10 0.38 0.23 89 1009.3
20260509125003 8 174 9.7 25.7 0.10 0.38 0.23 89 1009.3
20260509124516 8 179 11.3 25.7 0.08 0.36 0.20 89 1009.3
20260509124006 8 210 6.4 19.3 0.08 0.36 0.20 89 1009.3
20260509123508 8 192 6.4 19.3 0.08 0.33 0.18 89 1009.3
20260509123018 8 201 8.0 17.7 0.08 0.33 0.18 89 1009.3
20260509122509 8 195 6.4 17.7 0.05 0.30 0.15 89 1009.2
20260509122009 8 215 8.0 17.7 0.05 0.30 0.15 89 1009.3
20260509121526 8 196 6.4 17.7 0.03 0.28 0.13 88 1009.2
20260509121010 8 162 4.8 17.7 0.03 0.28 0.13 88 1009.2
20260509120508 8 200 8.0 16.1 0.03 0.28 0.13 88 1009.2
20260509120026 8 184 4.8 16.1 0.03 0.28 0.13 88 1009.4
20260509115515 8 198 6.4 16.1 0.05 0.28 0.13 88 1009.4
20260509115003 8 190 6.4 14.5 0.05 0.28 0.13 88 1009.3
20260509114510 8 162 4.8 14.5 0.05 0.28 0.13 88 1009.3
20260509114004 8 176 6.4 14.5 0.05 0.28 0.13 88 1009.3
20260509113507 8 168 4.8 12.9 0.03 0.25 0.10 87 1009.2
20260509113003 8 218 4.8 16.1 0.03 0.25 0.10 87 1009.2
20260509112509 8 186 6.4 16.1 0.03 0.25 0.10 87 1009.2
20260509112003 8 176 6.4 17.7 0.03 0.25 0.10 87 1009.2
20260509111504 8 189 6.4 17.7 0.03 0.25 0.10 87 1009.2
20260509111004 8 193 6.4 14.5 0.03 0.25 0.10 87 1009.3
20260509110501 8 181 6.4 12.9 0.03 0.25 0.10 86 1009.2
20260509110006 8 165 3.2 12.9 0.03 0.25 0.10 86 1009.2
20260509105504 8 199 6.4 12.9 0.00 0.23 0.08 86 1009.2
20260509105003 8 164 6.4 20.9 0.00 0.23 0.08 85 1009.2
20260509104508 8 190 8.0 20.9 0.00 0.23 0.08 85 1009.2
20260509104002 8 171 8.0 14.5 0.00 0.23 0.08 85 1009.1
20260509103503 8 184 8.0 14.5 0.00 0.23 0.08 85 1009.1
20260509103015 8 196 6.4 16.1 0.00 0.23 0.08 84 1009.1
20260509102505 8 188 8.0 16.1 0.00 0.23 0.08 84 1009.1
20260509102009 8 167 6.4 11.3 0.00 0.23 0.08 84 1009.1
20260509101518 8 190 6.4 11.3 0.00 0.23 0.08 84 1009.2
20260509101004 8 153 6.4 11.3 0.03 0.23 0.08 84 1009.3
20260509100503 8 174 6.4 9.7 0.03 0.23 0.08 84 1009.2
20260509100005 8 149 4.8 9.7 0.03 0.23 0.08 84 1009.3
20260509095504 8 154 4.8 9.7 0.03 0.23 0.08 84 1009.2
20260509095004 8 157 4.8 8.0 0.03 0.23 0.08 84 1009.2
20260509094505 8 153 4.8 8.0 0.03 0.23 0.08 84 1009.3
20260509094004 8 156 6.4 8.0 0.03 0.23 0.08 84 1009.2
20260509093503 8 141 4.8 8.0 0.03 0.23 0.08 84 1009.3
20260509093010 8 128 4.8 9.7 0.03 0.23 0.08 84 1009.3
20260509092505 8 124 6.4 9.7 0.03 0.23 0.08 84 1009.2
20260509092007 8 119 6.4 9.7 0.03 0.23 0.08 84 1009.2
20260509091513 8 110 8.0 9.7 0.03 0.23 0.08 85 1009.1
20260509091008 8 90 6.4 11.3 0.00 0.20 0.05 84 1009.3
20260509090507 8 113 9.7 11.3 0.00 0.20 0.05 84 1009.3
20260509090018 8 108 8.0 9.7 0.00 0.20 0.05 83 1009.3
20260509085503 8 115 6.4 9.7 0.00 0.20 0.05 83 1009.4
20260509085003 8 115 8.0 9.7 0.00 0.20 0.05 83 1009.4
20260509084509 8 103 6.4 9.7 0.00 0.20 0.05 83 1009.3
20260509084003 8 91 6.4 9.7 0.00 0.20 0.05 82 1009.3
20260509083503 8 89 4.8 6.4 0.00 0.20 0.05 82 1009.3
20260509083004 8 101 3.2 3.2 0.00 0.20 0.05 82 1009.4
20260509082503 8 114 0.0 1.6 0.00 0.20 0.05 82 1009.4
20260509082006 8 115 0.0 6.4 0.00 0.20 0.05 82 1009.4
20260509081515 8 115 3.2 6.4 0.00 0.20 0.05 83 1009.3
20260509081006 8 98 3.2 6.4 0.00 0.20 0.05 83 1009.1
20260509080507 8 89 4.8 6.4 0.00 0.20 0.05 84 1009.1
20260509080028 8 100 3.2 9.7 0.00 0.20 0.05 84 1009.2
20260509075506 8 104 4.8 11.3 0.00 0.20 0.05 85 1009.2
20260509072504 7 78 8.0 12.9 0.00 0.20 0.05 86 1009.2
20260509072002 7 95 9.7 12.9 0.00 0.20 0.05 86 1009.3
20260509071509 7 94 8.0 11.3 0.00 0.20 0.05 86 1009.4
20260509065007 7 91 8.0 9.7 0.00 0.20 0.05 87 1009.5
20260509064517 7 99 8.0 9.7 0.00 0.20 0.05 87 1009.6
20260509064013 7 93 6.4 11.3 0.00 0.20 0.05 88 1009.7
20260509061513 7 91 8.0 11.3 0.00 0.20 0.05 88 1010.1
20260509061005 7 80 4.8 9.7 0.00 0.20 0.05 88 1010.1
20260509060503 7 75 6.4 9.7 0.00 0.20 0.05 88 1010.2
20260509060010 7 85 6.4 9.7 0.00 0.20 0.05 88 1010.2
20260509055503 7 79 6.4 9.7 0.00 0.20 0.05 88 1010.4
20260509055003 7 85 4.8 9.7 0.00 0.20 0.05 87 1010.4
20260509054518 7 70 6.4 9.7 0.00 0.20 0.05 87 1010.5
20260509054006 7 72 4.8 8.0 0.00 0.20 0.05 87 1010.4
20260509053506 7 87 4.8 9.7 0.00 0.20 0.05 86 1010.5
20260509053028 7 77 3.2 9.7 0.03 0.20 0.05 86 1010.6
20260509052508 7 46 3.2 8.0 0.03 0.20 0.05 86 1010.7
20260509052008 7 55 3.2 8.0 0.03 0.20 0.05 86 1010.6
20260509051533 7 85 3.2 8.0 0.03 0.20 0.05 87 1010.7
20260509051007 7 72 3.2 8.0 0.03 0.20 0.05 87 1010.7
20260509050504 7 85 3.2 9.7 0.03 0.20 0.05 87 1010.8
20260509050008 7 63 3.2 9.7 0.05 0.20 0.05 87 1011.0
20260509045503 7 75 4.8 8.0 0.05 0.20 0.05 87 1011.1
20260509045003 7 86 4.8 8.0 0.05 0.20 0.05 87 1011.2
20260509044510 7 61 3.2 8.0 0.05 0.20 0.05 87 1011.3
20260509044003 7 75 4.8 8.0 0.05 0.20 0.05 87 1011.3
20260509043504 7 64 3.2 9.7 0.05 0.20 0.05 87 1011.4
20260509043016 7 88 4.8 9.7 0.03 0.18 0.03 87 1011.4
20260509042510 7 81 3.2 6.4 0.05 0.18 0.03 86 1011.5
20260509042006 7 80 3.2 6.4 0.05 0.18 0.03 86 1011.5
20260509041520 7 82 3.2 6.4 0.05 0.18 0.03 86 1011.6
20260509041009 7 69 4.8 6.4 0.05 0.18 0.03 86 1011.8
20260509040507 7 79 4.8 6.4 0.08 0.18 0.03 86 1011.8
20260509040022 7 82 4.8 6.4 0.05 0.15 0.00 85 1011.9
20260509035507 7 94 3.2 6.4 0.05 0.15 0.15 85 1012.0
20260509035009 7 102 3.2 6.4 0.05 0.15 0.15 86 1012.1
20260509034508 7 94 4.8 6.4 0.05 0.15 0.15 86 1012.0
20260509034004 7 101 4.8 6.4 0.05 0.15 0.15 86 1012.0
20260509033504 7 114 4.8 6.4 0.05 0.15 0.15 86 1012.1
20260509033012 7 105 3.2 6.4 0.05 0.15 0.15 85 1012.2
20260509032507 8 114 1.6 4.8 0.05 0.13 0.13 85 1012.3
20260509032009 8 93 3.2 4.8 0.05 0.13 0.13 84 1012.2
20260509031518 8 77 0.0 1.6 0.05 0.13 0.13 84 1012.4
20260509031009 8 77 0.0 3.2 0.05 0.13 0.13 85 1012.4
20260509030508 8 70 0.0 4.8 0.03 0.10 0.10 85 1012.3
20260509030022 8 91 1.6 4.8 0.03 0.10 0.10 84 1012.4
20260509025509 8 87 3.2 4.8 0.03 0.10 0.10 84 1012.3
20260509025011 8 73 3.2 4.8 0.03 0.10 0.10 84 1012.3
20260509024523 8 89 3.2 4.8 0.03 0.10 0.10 83 1012.4
20260509024009 8 102 1.6 3.2 0.03 0.10 0.10 82 1012.4
20260509023512 8 103 0.0 3.2 0.03 0.10 0.10 83 1012.3
20260509023010 8 94 1.6 3.2 0.03 0.10 0.10 82 1012.4
20260509022503 8 82 0.0 0.0 0.00 0.08 0.08 81 1012.4
20260509022007 8 82 0.0 0.0 0.00 0.08 0.08 81 1012.5
20260509021515 8 82 0.0 0.0 0.00 0.08 0.08 81 1012.4
20260509021007 8 81 0.0 0.0 0.00 0.08 0.08 81 1012.4
20260509020506 8 81 0.0 0.0 0.00 0.08 0.08 82 1012.2
20260509020019 8 81 0.0 0.0 0.00 0.08 0.08 82 1012.0
20260509015506 8 81 0.0 0.0 0.00 0.08 0.08 82 1011.9
20260509015006 8 81 0.0 1.6 0.00 0.08 0.08 82 1011.9
20260509014535 8 81 0.0 4.8 0.00 0.08 0.08 82 1011.8
20260509014006 8 81 1.6 4.8 0.00 0.08 0.08 82 1011.7
20260509013509 8 102 1.6 3.2 0.00 0.08 0.08 82 1011.8
20260509013024 8 117 1.6 3.2 0.00 0.08 0.08 82 1011.8
20260509012510 8 169 0.0 0.0 0.00 0.08 0.08 82 1011.8
20260509012011 8 169 0.0 1.6 0.00 0.08 0.08 81 1011.8
20260509011526 8 217 0.0 1.6 0.00 0.08 0.08 81 1011.8
20260509011003 8 235 0.0 3.2 0.00 0.08 0.08 81 1011.8
20260509010507 8 221 0.0 3.2 0.00 0.08 0.08 82 1011.8
20260509010013 8 227 1.6 3.2 0.00 0.08 0.08 82 1011.7
20260509005509 8 236 1.6 3.2 0.00 0.08 0.08 83 1011.6
20260509005002 8 233 0.0 0.0 0.00 0.08 0.08 84 1011.5
20260509004503 8 191 0.0 0.0 0.00 0.08 0.08 84 1011.5
20260509004003 8 193 0.0 0.0 0.00 0.08 0.08 84 1011.4
20260509003504 8 163 0.0 0.0 0.00 0.08 0.08 84 1011.4
20260509003006 8 165 0.0 0.0 0.00 0.08 0.08 84 1011.3
20260509002503 8 160 0.0 0.0 0.00 0.08 0.08 84 1011.3
20260509002003 8 139 0.0 0.0 0.00 0.08 0.08 84 1011.3
20260509001507 8 137 0.0 0.0 0.00 0.08 0.08 83 1011.1
20260509001003 8 125 0.0 1.6 0.00 0.08 0.08 83 1011.1
20260509000504 8 196 0.0 1.6 0.03 0.08 0.08 82 1011.3
20260509000012 8 203 0.0 1.6 0.03 0.08 0.08 82 1011.3
20260508235508 8 188 0.0 0.0 0.03 0.08 0.08 82 1011.3
20260508235006 8 195 0.0 3.2 0.03 0.08 0.08 81 1011.3
20260508234516 8 209 0.0 3.2 0.03 0.08 0.08 81 1011.3
20260508234007 8 225 0.0 4.8 0.03 0.08 0.08 81 1011.3
20260508233502 8 244 1.6 4.8 0.03 0.08 0.08 81 1011.3
20260508233004 8 257 0.0 6.4 0.03 0.08 0.08 81 1011.3
20260508232505 8 267 1.6 6.4 0.05 0.08 0.08 80 1011.3
20260508232003 8 236 3.2 8.0 0.05 0.08 0.08 80 1011.2
20260508231504 8 252 3.2 8.0 0.05 0.08 0.08 80 1011.2
20260508231002 8 262 4.8 11.3 0.05 0.08 0.08 80 1011.4
20260508230502 8 274 4.8 16.1 0.03 0.05 0.05 79 1011.3
20260508230007 8 291 9.7 16.1 0.03 0.05 0.05 79 1011.1
20260508225502 8 285 9.7 19.3 0.03 0.05 0.05 79 1011.1
20260508225005 8 280 11.3 27.4 0.03 0.05 0.05 79 1011.2
20260508224512 8 283 9.7 27.4 0.03 0.05 0.05 79 1011.3
20260508224006 8 295 12.9 33.8 0.03 0.05 0.05 78 1011.3
20260508223509 8 269 12.9 33.8 0.03 0.05 0.05 78 1011.5
20260508223024 9 257 17.7 27.4 0.03 0.05 0.05 75 1011.4
20260508222507 9 262 12.9 27.4 0.00 0.03 0.03 75 1011.6
20260508222002 10 233 11.3 29.0 0.00 0.03 0.03 73 1011.8
20260508221007 10 236 12.9 29.0 0.00 0.03 0.03 72 1011.8
20260508220507 10 241 12.9 29.0 0.00 0.03 0.03 71 1011.8
20260508220003 10 269 8.0 29.0 0.00 0.03 0.03 71 1011.8
20260508215505 10 270 14.5 29.0 0.00 0.03 0.03 71 1011.6
20260508215005 10 226 11.3 24.1 0.00 0.03 0.03 70 1011.7
20260508214508 10 252 11.3 22.5 0.00 0.03 0.03 70 1011.7
20260508214011 10 244 6.4 17.7 0.00 0.03 0.03 71 1011.7
20260508213503 11 257 4.8 17.7 0.00 0.03 0.03 70 1011.6
20260508213014 11 259 8.0 27.4 0.00 0.03 0.03 70 1011.6
20260508212508 11 265 8.0 27.4 0.00 0.03 0.03 70 1011.6
20260508212009 11 253 11.3 27.4 0.00 0.03 0.03 69 1011.6
20260508211528 11 289 4.8 24.1 0.00 0.03 0.03 70 1011.6
20260508211010 11 233 11.3 35.4 0.00 0.03 0.03 70 1011.7
20260508210503 11 249 14.5 35.4 0.00 0.03 0.03 70 1011.6
20260508210005 11 215 9.7 20.9 0.00 0.03 0.03 70 1011.7
20260508205502 11 272 8.0 33.8 0.00 0.03 0.03 70 1011.6
20260508205004 11 276 8.0 38.6 0.00 0.03 0.03 70 1011.5
20260508204508 10 281 17.7 38.6 0.00 0.03 0.03 70 1011.7
20260508204005 10 272 14.5 37.0 0.00 0.03 0.03 70 1011.5
20260508203503 10 271 17.7 37.0 0.00 0.03 0.03 70 1011.5
20260508203010 10 148 17.7 30.6 0.00 0.03 0.03 70 1011.4
20260508202504 10 240 16.1 30.6 0.00 0.03 0.03 71 1011.6
20260508202007 10 269 16.1 29.0 0.00 0.03 0.03 71 1011.6
20260508201516 11 259 14.5 29.0 0.00 0.03 0.03 71 1011.8
20260508201007 11 223 11.3 24.1 0.00 0.03 0.03 71 1011.8
20260508200508 11 252 11.3 24.1 0.03 0.03 0.03 71 1011.8
20260508200027 11 277 12.9 24.1 0.03 0.03 0.03 70 1011.7
20260508195506 11 269 8.0 17.7 0.03 0.03 0.03 71 1011.8
20260508195006 11 266 8.0 19.3 0.03 0.03 0.03 71 1011.9
20260508194512 11 236 8.0 19.3 0.03 0.03 0.03 72 1011.9
20260508194003 10 221 6.4 17.7 0.03 0.03 0.03 74 1012.0
20260508193504 10 285 6.4 17.7 0.03 0.03 0.03 74 1012.0
20260508193009 10 259 3.2 14.5 0.03 0.03 0.03 75 1012.1
20260508192502 10 277 3.2 17.7 0.03 0.03 0.03 75 1012.0
20260508192004 10 265 6.4 27.4 0.03 0.03 0.03 74 1012.1
20260508191519 10 250 8.0 38.6 0.03 0.03 0.03 73 1012.0
20260508191004 10 250 24.1 38.6 0.03 0.03 0.03 71 1012.0
20260508190507 10 238 12.9 25.7 0.00 0.00 0.00 72 1011.9
20260508190020 10 224 3.2 8.0 0.00 0.00 0.00 72 1012.0
20260508185508 10 293 4.8 8.0 0.00 0.00 0.00 70 1011.8
20260508185009 10 307 3.2 9.7 0.00 0.00 0.00 70 1011.8
20260508184521 10 287 3.2 9.7 0.00 0.00 0.00 69 1011.8
20260508184007 10 286 1.6 12.9 0.00 0.00 0.00 70 1011.8
20260508183510 11 278 3.2 14.5 0.00 0.00 0.00 69 1011.9
20260508183006 11 309 4.8 14.5 0.00 0.00 0.00 66 1011.7
20260508182504 12 299 6.4 12.9 0.00 0.00 0.00 62 1011.4
20260508182004 12 309 4.8 9.7 0.00 0.00 0.00 60 1011.8
20260508181510 12 207 0.0 12.9 0.00 0.00 0.00 59 1011.5
20260508181004 12 264 4.8 16.1 0.00 0.00 0.00 57 1011.6
20260508180504 12 262 4.8 22.5 0.00 0.00 0.00 56 1011.7
20260508180018 12 283 9.7 24.1 0.00 0.00 0.00 56 1011.7
20260508175507 12 282 11.3 24.1 0.00 0.00 0.00 55 1011.7
20260508175003 12 276 9.7 32.2 0.00 0.00 0.00 55 1011.7
20260508174507 12 262 14.5 32.2 0.00 0.00 0.00 54 1011.6